Regional Weather Roundup
Issued by NWS Grand Forks, ND

Home | Current Version | Previous Version | Graphics & Text | Print | Product List | Glossary On
Versions: 1 2 3 4 5 6 7 8 9 10 11 12 13 14 15 16 17 18 19 20 21 22 23 24 25 26 27 28 29 30 31 32 33 34 35 36 37 38 39 40 41 42 43 44 45 46 47 48 49 50
000
ASUS43 KFGF 021810
RWRFGF
PRAIRIE TO PINES  WEATHER ROUNDUP
NATIONAL WEATHER SERVICE EASTERN NORTH DAKOTA/GRAND FORKS ND
100 PM CDT WED SEP 02 2015

 **SATELLITE DATA USED TO AUGMENT SKY COVER AT AUTOMATED STATIONS**
 *****  WEATHER ACROSS EASTERN NORTH DAKOTA  *****

CITY           SKY/WX    TMP DP  RH WIND       PRES   REMARKS
GRAND FORKS    FAIR      84  67  56 SE15      29.81S
6HR MIN TEMP:  66; 6HR MAX TEMP:  84;

GRAND FRKS AFB FAIR      83  68  60 S12       29.82S
GRAND FRKS NWS   N/A     82 N/A N/A SE7         N/A
DEVILS LAKE    FAIR      82  66  57 SE13      29.78F
6HR MIN TEMP:  66; 6HR MAX TEMP:  82;

FARGO          FAIR      86  67  52 S10       29.82S
WAHPETON ARPT  FAIR      82  64  54 S13       29.84R
$$

 ***** WEATHER ACROSS CENTRAL AND WESTERN NORTH DAKOTA  *****

CITY           SKY/WX    TMP DP  RH WIND       PRES   REMARKS
BISMARCK       SUNNY     82  69  64 VRB5      29.77F
6HR MIN TEMP:  61; 6HR MAX TEMP:  82;

MINOT          FAIR      87  65  47 SE10      29.75F
6HR MIN TEMP:  59; 6HR MAX TEMP:  87;

JAMESTOWN      FAIR      84  69  60 SE10      29.80F
6HR MIN TEMP:  63; 6HR MAX TEMP:  84;

MINOT AFB      FAIR      89  67  47 SE13      29.74F HX  92
GARRISON         N/A     86  66  51 SE9       29.76F
WILLISTON      SUNNY     92  54  27 SE16G22   29.71F HX  90
6HR MIN TEMP:  55; 6HR MAX TEMP:  92;

DICKINSON      SUNNY     90  49  24 SE15G21   29.77F
6HR MIN TEMP:  55; 6HR MAX TEMP:  92; 6HR PCP: TRACE;

HETTINGER      SUNNY     90  52  27 SE13G18   29.81F
6HR MIN TEMP:  47; 6HR MAX TEMP:  90;

$$

 *****  OTHER AIRPORT OBSERVATIONS IN OUR AREA  *****

CITY           SKY/WX    TMP DP  RH WIND       PRES   REMARKS
WALHALLA       FAIR      84  72  65 MISG      29.79S
GRAFTON AIRPOR FAIR      82  72  69 S13G18    29.82S
VALLEY CITY AR FAIR      82  73  74 SE13      29.82S
CANDO          NOT AVBL
CAVALIER APRT  FAIR      82  72  69 S14       29.80S
GWINNER        FAIR      84  72  65 E16       29.81S
SHEYENNE NWR     N/A     83  70  63 SE12      29.95S
ROLLA            N/A     86  64  48 S12G17    29.80F
 ***** THE ABOVE OBSERVATIONS ARE NON NWS ARE NOT QUALITY
       CONTROLLED AND MAY MIS-REPORT RAIN FOR SNOW...
$$

  *****  WEATHER ACROSS NORTHERN MINNESOTA  *****

CITY           SKY/WX    TMP DP  RH WIND       PRES   REMARKS
FLAG ISLAND    FAIR      73  66  78 SE8       29.87S
WARROAD        FAIR      82  72  69 SE9       29.87S
ROSEAU           N/A     84  70  61 S10       29.86R
HALLOCK        FAIR      84  70  61 S14G21    29.81S
THF RVR FALLS  FAIR      84  64  51 S15       29.85F
6HR MIN TEMP:  61; 6HR MAX TEMP:  84;

BAUDETTE       FAIR      83  69  62 S13       29.88F
6HR MIN TEMP:  60; 6HR MAX TEMP:  84;

WASKISH        FAIR      81  72  74 E8        29.90S
CROOKSTON      FAIR      84  66  54 S15       29.84S
STEPHEN NDAWN    N/A     84  68  58 S12         N/A
GREENBUSH NDAW   N/A     84  66  54 S12         N/A
$$
  *****  WEATHER ACROSS CENTRAL AND WEST MINNESOTA  *****

CITY           SKY/WX    TMP DP  RH WIND       PRES   REMARKS
FOSSTON        FAIR      84  59  42 S13G18    29.88S
BEMIDJI        FAIR      82  62  51 SE17G23   29.90F
PARK RAPIDS    FAIR      82  61  48 E14       29.91S
6HR MIN TEMP:  68; 6HR MAX TEMP:  83;

ELBOW LAKE     FAIR      81  69  67 SE12      29.86S
6HR MIN TEMP:  64; 6HR MAX TEMP:  81;

WADENA         FAIR      81  64  57 E13       29.90S
DETROIT LAKES  FAIR      82  63  51 SE13G20   29.89R
MOORHEAD       FAIR      84  66  54 S10G16    29.84S
FERGUS FALLS   FAIR      82  66  57 SE9       29.84R
MORRIS MN      FAIR      82  72  69 SE10G24   29.85R
STAPLES        FAIR      81  63  54 E9        29.90F
$$
  *****  WEATHER ELSEWHERE ACROSS MINNESOTA  *****

CITY           SKY/WX    TMP DP  RH WIND       PRES   REMARKS
DULUTH         PTSUNNY   67  64  90 SE16      29.94F
6HR MIN TEMP:  64; 6HR MAX TEMP:  72; 6HR PCP:  1.83;

INTRNTL FALLS  PTSUNNY   78  65  63 VRB5      29.93F
6HR MIN TEMP:  60; 6HR MAX TEMP:  78; 6HR PCP: TRACE;

ELY            FAIR      68  63  83 E3        29.99S
CLOQUET        FAIR      72  64  78 S12G17    29.94F
WHEATON        FAIR      81  70  69 E13       29.84S
BRAINERD       PTSUNNY   77  66  68 E9        29.93S
6HR MIN TEMP:  69; 6HR MAX TEMP:  79;

HIBBING        FAIR      77  63  61 SE6       29.95F
6HR MIN TEMP:  64; 6HR MAX TEMP:  77; 6HR PCP:  1.02;

ALEXANDRIA     FAIR      80  68  66 E13       29.90S
6HR MIN TEMP:  65; 6HR MAX TEMP:  80;

SAINT CLOUD    CLOUDY    76  69  79 E8        29.90S HAZE
6HR MIN TEMP:  66; 6HR MAX TEMP:  76;

MINNEAPOLIS    CLOUDY    76  67  73 E9        29.90F
6HR MIN TEMP:  70; 6HR MAX TEMP:  76;

$$

  *****  WEATHER ACROSS SOUTH DAKOTA  *****

CITY           SKY/WX    TMP DP  RH WIND       PRES   REMARKS
SIOUX FALLS    FAIR      83  73  72 S12       29.84F
6HR MIN TEMP:  67; 6HR MAX TEMP:  83;

BROOKINGS      FAIR      82  72  69 SE10      29.85F
WATERTOWN      FAIR      85  71  63 SE7       29.83S HX  90
6HR MIN TEMP:  66; 6HR MAX TEMP:  85;

HURON          MOSUNNY   84  71  65 SE8       29.77F
6HR MIN TEMP:  67; 6HR MAX TEMP:  84;

SISSETON         N/A     84  69  60 SE14      29.81S
ABERDEEN       MOSUNNY   84  70  62 SE6       29.78F
6HR MIN TEMP:  59; 6HR MAX TEMP:  84;

MITCHELL       PTSUNNY   84  71  65 S9        29.79F
PIERRE         PTSUNNY   80  67  64 CALM      29.77S
6HR MIN TEMP:  59; 6HR MAX TEMP:  80;

MOBRIDGE       SUNNY     82  72  71 VRB5      29.76S
RAPID CITY     SUNNY     88  53  30 SE8       29.84F
6HR MIN TEMP:  56; 6HR MAX TEMP:  88;

$$

  *****  SOME WEATHER IN NEARBY STATES *****

CITY           SKY/WX    TMP DP  RH WIND       PRES   REMARKS
GLASGOW MT     PTSUNNY   85  42  22 S8        29.66F
6HR MIN TEMP:  60; 6HR MAX TEMP:  85;

GREAT FALLS MT CLOUDY    76  34  21 W10       29.72R
6HR MIN TEMP:  49; 6HR MAX TEMP:  76;

CHEYENNE WY    SUNNY     83  37  19 NW10G21   30.13F
6HR MIN TEMP:  65; 6HR MAX TEMP:  85;

SCOTTSBLUFF NE SUNNY     88  50  27 W8        29.97F
6HR MIN TEMP:  54; 6HR MAX TEMP:  88;

OMAHA NE       FAIR      84  70  62 S21       29.91F
6HR MIN TEMP:  73; 6HR MAX TEMP:  85;

DES MOINES IA  FAIR      85  69  58 SW17G26   29.93F
6HR MIN TEMP:  71; 6HR MAX TEMP:  85; 6HR PCP: TRACE;

DAVENPORT IA   FAIR      83  69  62 SW10      30.02F
6HR MIN TEMP:  71; 6HR MAX TEMP:  83;

CHICAGO IL     MOSUNNY   87  69  54 SW13      30.01F HX  91
6HR MIN TEMP:  72; 6HR MAX TEMP:  88;

EAU CLAIRE WI  CLOUDY    71  68  90 NE8       29.96R
6HR MIN TEMP:  69; 6HR MAX TEMP:  73; 6HR PCP:  0.21;

LA CROSSE WI   FAIR      85  68  56 S10       29.93F
6HR MIN TEMP:  73; 6HR MAX TEMP:  85;

$$

  *****  SOME NATIONAL WEATHER *****

CITY           SKY/WX    TMP DP  RH WIND       PRES   REMARKS
LA GUARDIA NY  MOSUNNY   86  67  52 S9        29.95F
6HR MIN TEMP:  77; 6HR MAX TEMP:  87;

RALEIGH NC     PTSUNNY   91  69  48 VRB5      30.04F HX  96
6HR MIN TEMP:  73; 6HR MAX TEMP:  92;

ATLANTA GA     PTSUNNY   86  67  52 S5        30.09F
6HR MIN TEMP:  73; 6HR MAX TEMP:  88;

NEW ORLEANS LA TSTM      78  73  84 S12       30.09S
6HR MIN TEMP:  78; 6HR MAX TEMP:  85; 6HR PCP:  0.08;

OKLAHOMA CITY  FAIR      90  67  46 SW14      30.03F HX  93
6HR MIN TEMP:  66; 6HR MAX TEMP:  90;

ALBUQUERQUE NM PTSUNNY   83  48  29 CALM      30.22F
6HR MIN TEMP:  68; 6HR MAX TEMP:  83;

SALT LAKE CITY MOSUNNY   86  47  25 S21G29    30.00F
6HR MIN TEMP:  74; 6HR MAX TEMP:  86;




USA.gov is the U.S. government's official web portal to all federal, state and local government web resources and services.